Weather History for Lubbock, TX

Change the Weather History Date:

Wednesday, October 31, 2012

  Actual Average Record
Temperature  
Mean Temperature 62 °F 56 °F  
Max Temperature 81 °F 70 °F 88 °F (1934)
Min Temperature 42 °F 43 °F 20 °F (1991)
Degree Days  
Heating Degree Days 3 9  
Month to date heating degree days 195 159  
Since 1 July heating degree days 213 182  
Cooling Degree Days 0 0  
Month to date cooling degree days 67 52  
Year to date cooling degree days 2304 1801  
Growing Degree Days 12 (Base 50)    
Moisture  
Dew Point 33 °F    
Average Humidity 42    
Maximum Humidity 67    
Minimum Humidity 16    
Precipitation  
Precipitation 0.00 in 0.05 in 0.99 in (1998)
Month to date precipitation 0.28 1.93  
Year to date precipitation 10.74 17.51  
Snow  
Snow 0.00 in 0.00 in - ()
Month to date snowfall 0.0 T  
Since 1 July snowfall 0.0 T  
Since 1 September snowfall 0.0 T  
Snow Depth 0.00 in    
Sea Level Pressure  
Sea Level Pressure 30.00 in    
Wind  
Wind Speed 8 mph (SW)    
Max Wind Speed 14 mph    
Max Gust Speed 23 mph    
Visibility 10 miles    
Events      
T = Trace of Precipitation, MM = Missing Value Source: NWS Daily Summary

Daily Weather History Graph

Daily Weather History Graph

Search for Another Location

Airport:

Trip Planner

Search our weather history database for the weather conditions in past years. The results will help you decide how hot, cold, wet, or windy it might be!

Date:

Astronomy

Oct. 31, 2012 Rise Set
Actual Time 8:05 AM CDT 6:55 PM CDT
Civil Twilight 7:40 AM CDT 7:21 PM CDT
Nautical Twilight 7:10 AM CDT 7:50 PM CDT
Astronomical Twilight 6:41 AM CDT 8:19 PM CDT
Moon 8:13 PM CDT (10/31) 9:43 AM CDT (10/31)
Length of Visible Light 11h 40m
Length of Day
10h 49m
Full, 97% of the Moon is Illuminated
Oct 31
Full
Nov 6
Last Quarter
Nov 13
New
Nov 20
First Quarter
Nov 28
Full

Hourly Weather History & Observations

Time (CDT) Temp. Windchill Dew Point Humidity Pressure Visibility Wind Dir Wind Speed Gust Speed Precip Events Conditions
12:53 AM 52.0 °F - 34.0 °F 50% 29.97 in 10.0 mi West 3.5 mph - N/A   Clear
1:53 AM 51.1 °F - 34.0 °F 52% 29.96 in 10.0 mi West 5.8 mph - N/A   Clear
2:53 AM 48.9 °F - 34.0 °F 56% 29.97 in 10.0 mi NW 4.6 mph - N/A   Clear
3:53 AM 45.0 °F 40.1 °F 32.0 °F 60% 29.98 in 10.0 mi WNW 9.2 mph - N/A   Clear
4:53 AM 46.9 °F - 34.0 °F 61% 29.98 in 10.0 mi NW 8.1 mph - N/A   Clear
5:53 AM 45.0 °F 41.2 °F 33.1 °F 63% 30.00 in 10.0 mi NNW 6.9 mph - N/A   Clear
6:53 AM 44.1 °F 38.6 °F 33.1 °F 65% 30.03 in 10.0 mi NNE 10.4 mph - N/A   Clear
7:53 AM 42.1 °F 37.1 °F 32.0 °F 67% 30.05 in 10.0 mi NNE 8.1 mph - N/A   Partly Cloudy
8:53 AM 46.9 °F - 33.1 °F 59% 30.06 in 10.0 mi North 3.5 mph - N/A   Clear
9:53 AM 63.0 °F - 36.0 °F 37% 30.05 in 10.0 mi Variable 3.5 mph - N/A   Clear
10:53 AM 69.1 °F - 37.9 °F 32% 30.05 in 10.0 mi NNE 4.6 mph - N/A   Clear
11:53 AM 72.0 °F - 37.0 °F 28% 30.05 in 10.0 mi Calm Calm - N/A   Clear
12:53 PM 75.0 °F - 36.0 °F 24% 30.03 in 10.0 mi SE 4.6 mph - N/A   Clear
1:53 PM 79.0 °F - 33.1 °F 19% 30.00 in 10.0 mi SSW 12.7 mph - N/A   Clear
2:53 PM 80.1 °F - 32.0 °F 17% 29.97 in 10.0 mi South 10.4 mph - N/A   Clear
3:53 PM 80.1 °F - 30.0 °F 16% 29.96 in 10.0 mi South 8.1 mph - N/A   Clear
4:53 PM 80.1 °F - 30.0 °F 16% 29.95 in 10.0 mi SSW 8.1 mph - N/A   Clear
5:53 PM 79.0 °F - 28.0 °F 15% 29.96 in 10.0 mi South 9.2 mph - N/A   Clear
6:53 PM 73.0 °F - 28.9 °F 20% 29.98 in 10.0 mi South 10.4 mph - N/A   Clear
7:53 PM 66.9 °F - 28.9 °F 24% 30.01 in 10.0 mi South 9.2 mph - N/A   Clear
8:53 PM 64.9 °F - 32.0 °F 29% 30.01 in 10.0 mi South 8.1 mph - N/A   Clear
9:53 PM 63.0 °F - 33.1 °F 33% 29.99 in 10.0 mi South 10.4 mph - N/A   Clear
10:53 PM 63.0 °F - 36.0 °F 37% 29.99 in 10.0 mi South 10.4 mph - N/A   Clear
11:53 PM 61.0 °F - 37.9 °F 42% 29.99 in 10.0 mi South 9.2 mph - N/A   Clear